Location: Houston
(29.7630°N, 95.3630°W)
Time: 22:04:05
(UTC-06:00)

ISS - All Passes

Search period start: 04 March 2015 00:00
Search period end: 14 March 2015 01:00
Orbit: 394 x 406 km, 51.6° (Epoch: 04 March)

Date Brightness Start Highest point End Pass type
(mag) Time Alt. Az. Time Alt. Az. Time Alt. Az.
04 Mar - 07:11:58 10° SSW 07:14:51 32° SE 07:17:47 10° ENE daylight
04 Mar - 08:49:12 10° WNW 08:51:20 16° NW 08:53:24 10° N daylight
04 Mar - 15:20:13 10° NNW 15:23:00 27° NE 15:25:48 10° ESE daylight
04 Mar - 16:57:04 10° W 16:59:14 17° SW 17:01:21 10° SSW daylight
05 Mar - 06:19:41 10° SSE 06:21:22 14° SE 06:23:10 10° E visible
05 Mar - 07:54:37 10° WSW 07:57:34 32° NW 08:00:29 10° NNE daylight
05 Mar - 14:27:25 10° N 14:29:09 14° NE 14:30:59 10° ENE daylight
05 Mar - 16:02:39 10° WNW 16:05:42 39° SW 16:08:43 10° SSE daylight
06 Mar - 07:00:34 10° SW 07:03:47 79° NW 07:07:00 10° NE daylight
06 Mar - 15:08:45 10° NW 15:11:58 76° NE 15:15:10 10° SE daylight
07 Mar - 06:06:57 10° SSW 06:09:58 38° SE 06:12:59 10° ENE visible
07 Mar - 07:44:34 10° WNW 07:46:28 14° NW 07:48:17 10° N daylight
07 Mar - 14:15:06 10° NNW 14:17:59 31° NE 14:20:54 10° ESE daylight
07 Mar - 15:52:18 10° W 15:54:10 14° SW 15:55:56 10° SSW daylight
08 Mar - 06:14:01 10° SSE 06:16:03 16° SE 06:18:10 10° E visible
08 Mar - 07:49:25 10° WSW 07:52:15 28° NW 07:55:04 10° NNE daylight
08 Mar - 14:21:46 10° N 14:23:45 15° NE 14:25:49 10° ENE daylight
08 Mar - 15:57:15 10° WNW 16:00:12 33° SW 16:03:08 10° SSE daylight
09 Mar - 06:54:49 10° SW 06:58:01 67° NW 07:01:14 10° NE visible
09 Mar - 15:02:51 10° NW 15:06:04 89° NE 15:09:16 10° SE daylight
10 Mar - 06:00:41 10° SSW 06:03:46 44° SE 06:06:51 10° ENE visible
10 Mar - 07:38:38 10° WNW 07:40:18 13° NW 07:41:52 10° N daylight
10 Mar - 14:08:43 10° NNW 14:11:41 34° NE 14:14:40 10° ESE daylight
10 Mar - 15:46:16 10° W 15:47:48 13° SW 15:49:12 10° SSW daylight
11 Mar - 05:07:12 10° S 05:09:26 18° SE 05:11:44 10° E visible
11 Mar - 06:42:53 10° W 06:45:38 25° NW 06:48:22 10° NNE visible
11 Mar - 13:14:54 10° N 13:17:03 17° NE 13:19:15 10° E daylight
11 Mar - 14:50:34 10° WNW 14:53:26 30° SW 14:56:16 10° SSE daylight
12 Mar - 05:47:48 10° SW 05:50:58 60° NW 05:54:09 10° NE visible
12 Mar - 13:55:40 10° NW 13:58:52 82° SW 14:02:04 10° SE daylight
13 Mar - 04:53:10 10° SSW 04:56:17 49° SE 04:59:25 10° NE visible
13 Mar - 06:31:22 10° WNW 06:32:50 12° NW 06:34:12 10° N visible
13 Mar - 13:01:04 10° NNW 13:04:05 37° NE 13:07:05 10° ESE daylight
13 Mar - 14:38:57 10° WSW 14:40:09 11° SW 14:41:12 10° SW daylight
